| time (UTC) | temp F | wind direction | speed MPH | gust MPH | rain 1hr in | rain 24hr in | rain mn in | humidity % | barometer mb |
| 20260505213528 | 81 | 246 | 8.0 | 18.0 | 0.00 | 0.00 | 0.00 | 39 | 1008.4 |
| 20260505213022 | 81 | 246 | 6.0 | 18.0 | 0.00 | 0.00 | 0.00 | 39 | 1008.3 |
| 20260505212518 | 81 | 212 | 7.0 | 21.0 | 0.00 | 0.00 | 0.00 | 40 | 1008.1 |
| 20260505212020 | 80 | 153 | 8.0 | 21.0 | 0.00 | 0.00 | 0.00 | 39 | 1008.1 |
| 20260505211517 | 81 | 215 | 7.0 | 17.0 | 0.00 | 0.00 | 0.00 | 38 | 1008.2 |
| 20260505211248 | 81 | 212 | 7.0 | 19.0 | 0.00 | 0.00 | 0.00 | 37 | 1008.2 |
| 20260505210518 | 81 | 227 | 7.0 | 19.0 | 0.00 | 0.00 | 0.00 | 37 | 1008.1 |
| 20260505210016 | 81 | 140 | 8.0 | 18.0 | 0.00 | 0.00 | 0.00 | 38 | 1008.1 |
| 20260505205515 | 81 | 124 | 9.0 | 23.0 | 0.00 | 0.00 | 0.00 | 37 | 1008.1 |
| 20260505205016 | 81 | 217 | 8.0 | 23.0 | 0.00 | 0.00 | 0.00 | 36 | 1008.2 |
| 20260505204515 | 81 | 194 | 8.0 | 19.0 | 0.00 | 0.00 | 0.00 | 36 | 1008.2 |
| 20260505204233 | 81 | 167 | 8.0 | 24.0 | 0.00 | 0.00 | 0.00 | 36 | 1008.2 |
| 20260505203515 | 82 | 227 | 7.0 | 24.0 | 0.00 | 0.00 | 0.00 | 36 | 1008.3 |
| 20260505203249 | 81 | 211 | 8.0 | 18.0 | 0.00 | 0.00 | 0.00 | 39 | 1008.2 |
| 20260505202515 | 81 | 218 | 8.0 | 18.0 | 0.00 | 0.00 | 0.00 | 36 | 1008.2 |
| 20260505202014 | 82 | 234 | 7.0 | 16.0 | 0.00 | 0.00 | 0.00 | 36 | 1008.3 |
| 20260505201516 | 82 | 223 | 8.0 | 24.0 | 0.00 | 0.00 | 0.00 | 38 | 1008.3 |
| 20260505201013 | 81 | 239 | 9.0 | 24.0 | 0.00 | 0.00 | 0.00 | 37 | 1008.3 |
| 20260505200514 | 82 | 206 | 8.0 | 19.0 | 0.00 | 0.00 | 0.00 | 36 | 1008.4 |
| 20260505200009 | 82 | 160 | 9.0 | 23.0 | 0.00 | 0.00 | 0.00 | 38 | 1008.4 |
| 20260505195510 | 81 | 228 | 8.0 | 23.0 | 0.00 | 0.00 | 0.00 | 37 | 1008.5 |
| 20260505195009 | 82 | 166 | 7.0 | 21.0 | 0.00 | 0.00 | 0.00 | 39 | 1008.5 |
| 20260505194510 | 81 | 236 | 7.0 | 21.0 | 0.00 | 0.00 | 0.00 | 39 | 1008.4 |
| 20260505194008 | 81 | 202 | 8.0 | 21.0 | 0.00 | 0.00 | 0.00 | 41 | 1008.5 |
| 20260505193510 | 82 | 203 | 9.0 | 21.0 | 0.00 | 0.00 | 0.00 | 42 | 1008.4 |
| 20260505193011 | 81 | 216 | 8.0 | 20.0 | 0.00 | 0.00 | 0.00 | 44 | 1008.6 |
| 20260505192509 | 82 | 221 | 8.0 | 18.0 | 0.00 | 0.00 | 0.00 | 39 | 1008.6 |
| 20260505192018 | 82 | 139 | 8.0 | 20.0 | 0.00 | 0.00 | 0.00 | 40 | 1008.7 |
| 20260505191738 | 81 | 263 | 6.0 | 20.0 | 0.00 | 0.00 | 0.00 | 40 | 1008.8 |
| 20260505191450 | 82 | 223 | 6.0 | 15.0 | 0.00 | 0.00 | 0.00 | 44 | 1008.8 |
| 20260505190733 | 82 | 209 | 7.0 | 23.0 | 0.00 | 0.00 | 0.00 | 41 | 1008.9 |
| 20260505190010 | 81 | 157 | 7.0 | 23.0 | 0.00 | 0.00 | 0.00 | 40 | 1008.9 |
| 20260505190000 | 81 | 244 | 7.0 | 17.0 | 0.00 | 0.00 | 0.00 | 40 | 1009.0 |
| 20260505185006 | 81 | 155 | 8.0 | 17.0 | 0.00 | 0.00 | 0.00 | 40 | 1009.0 |
| 20260505184506 | 82 | 180 | 7.0 | 18.0 | 0.00 | 0.00 | 0.00 | 39 | 1009.0 |
| 20260505184008 | 81 | 182 | 6.0 | 18.0 | 0.00 | 0.00 | 0.00 | 39 | 1009.1 |
| 20260505183508 | 82 | 159 | 6.0 | 15.0 | 0.00 | 0.00 | 0.00 | 40 | 1009.2 |
| 20260505183008 | 81 | 237 | 6.0 | 16.0 | 0.00 | 0.00 | 0.00 | 41 | 1009.2 |
| 20260505182508 | 81 | 205 | 7.0 | 16.0 | 0.00 | 0.00 | 0.00 | 39 | 1009.2 |
| 20260505182005 | 82 | 254 | 6.0 | 15.0 | 0.00 | 0.00 | 0.00 | 40 | 1009.3 |
| 20260505181509 | 81 | 211 | 6.0 | 15.0 | 0.00 | 0.00 | 0.00 | 42 | 1009.3 |
| 20260505181008 | 80 | 204 | 7.0 | 15.0 | 0.00 | 0.00 | 0.00 | 42 | 1009.4 |
| 20260505180506 | 81 | 214 | 7.0 | 15.0 | 0.00 | 0.00 | 0.00 | 44 | 1009.5 |
| 20260505180005 | 81 | 190 | 7.0 | 14.0 | 0.00 | 0.00 | 0.00 | 42 | 1009.5 |
| 20260505175509 | 80 | 125 | 8.0 | 23.0 | 0.00 | 0.00 | 0.00 | 43 | 1009.5 |
| 20260505175004 | 81 | 291 | 8.0 | 23.0 | 0.00 | 0.00 | 0.00 | 43 | 1009.6 |
| 20260505174722 | 81 | 192 | 7.0 | 15.0 | 0.00 | 0.00 | 0.00 | 43 | 1009.5 |
| 20260505174232 | 81 | 151 | 7.0 | 18.0 | 0.00 | 0.00 | 0.00 | 42 | 1009.6 |
| 20260505173504 | 80 | 157 | 7.0 | 18.0 | 0.00 | 0.00 | 0.00 | 44 | 1009.7 |
| 20260505173003 | 80 | 196 | 7.0 | 16.0 | 0.00 | 0.00 | 0.00 | 46 | 1009.6 |
| 20260505172503 | 80 | 167 | 7.0 | 16.0 | 0.00 | 0.00 | 0.00 | 43 | 1009.7 |
| 20260505172005 | 80 | 151 | 7.0 | 15.0 | 0.00 | 0.00 | 0.00 | 50 | 1009.7 |
| 20260505171501 | 80 | 164 | 6.0 | 16.0 | 0.00 | 0.00 | 0.00 | 46 | 1009.9 |
| 20260505171002 | 79 | 140 | 6.0 | 16.0 | 0.00 | 0.00 | 0.00 | 50 | 1010.1 |
| 20260505170500 | 80 | 231 | 6.0 | 14.0 | 0.00 | 0.00 | 0.00 | 47 | 1010.0 |
| 20260505170005 | 79 | 172 | 5.0 | 15.0 | 0.00 | 0.00 | 0.00 | 49 | 1010.1 |
| 20260505165457 | 80 | 183 | 5.0 | 15.0 | 0.00 | 0.00 | 0.00 | 48 | 1010.1 |
| 20260505164958 | 80 | 178 | 5.0 | 14.0 | 0.00 | 0.00 | 0.00 | 51 | 1010.2 |
| 20260505164456 | 79 | 131 | 6.0 | 12.0 | 0.00 | 0.00 | 0.00 | 49 | 1010.2 |
| 20260505163957 | 79 | 184 | 6.0 | 13.0 | 0.00 | 0.00 | 0.00 | 47 | 1010.3 |
| 20260505163457 | 80 | 136 | 6.0 | 15.0 | 0.00 | 0.00 | 0.00 | 48 | 1010.3 |
| 20260505162958 | 80 | 134 | 6.0 | 15.0 | 0.00 | 0.00 | 0.00 | 47 | 1010.3 |
| 20260505162714 | 80 | 132 | 6.0 | 15.0 | 0.00 | 0.00 | 0.00 | 46 | 1010.3 |
| 20260505162215 | 80 | 213 | 5.0 | 13.0 | 0.00 | 0.00 | 0.00 | 46 | 1010.2 |
| 20260505161723 | 80 | 206 | 5.0 | 12.0 | 0.00 | 0.00 | 0.00 | 45 | 1010.2 |
| 20260505160956 | 79 | 198 | 5.0 | 11.0 | 0.00 | 0.00 | 0.00 | 44 | 1010.2 |
| 20260505160516 | 79 | 207 | 6.0 | 16.0 | 0.00 | 0.00 | 0.00 | 45 | 1010.3 |
| 20260505152953 | 78 | 280 | 5.0 | 13.0 | 0.00 | 0.00 | 0.00 | 47 | 1010.4 |
| 20260505152447 | 78 | 247 | 5.0 | 13.0 | 0.00 | 0.00 | 0.00 | 47 | 1010.5 |
| 20260505151949 | 77 | 181 | 6.0 | 14.0 | 0.00 | 0.00 | 0.00 | 47 | 1010.5 |
| 20260505151449 | 77 | 245 | 6.0 | 14.0 | 0.00 | 0.00 | 0.00 | 46 | 1010.8 |
| 20260505150947 | 77 | 227 | 5.0 | 12.0 | 0.00 | 0.00 | 0.00 | 47 | 1010.7 |
| 20260505150445 | 76 | 215 | 5.0 | 12.0 | 0.00 | 0.00 | 0.00 | 51 | 1010.6 |
| 20260505140444 | 73 | 272 | 4.0 | 11.0 | 0.00 | 0.00 | 0.00 | 54 | 1010.8 |
| 20260505124940 | 66 | 242 | 4.0 | 11.0 | 0.00 | 0.00 | 0.00 | 62 | 1011.6 |
| 20260505124440 | 66 | 286 | 5.0 | 12.0 | 0.00 | 0.00 | 0.00 | 62 | 1011.6 |
| 20260505123933 | 65 | 205 | 5.0 | 12.0 | 0.00 | 0.00 | 0.00 | 62 | 1011.6 |
| 20260505123428 | 65 | 202 | 4.0 | 10.0 | 0.00 | 0.00 | 0.00 | 63 | 1011.5 |
| 20260505122922 | 64 | 242 | 3.0 | 10.0 | 0.00 | 0.00 | 0.00 | 64 | 1011.4 |
| 20260505122416 | 64 | 201 | 3.0 | 6.0 | 0.00 | 0.00 | 0.00 | 65 | 1011.3 |
| 20260505121910 | 63 | 216 | 3.0 | 8.0 | 0.00 | 0.00 | 0.00 | 66 | 1011.4 |
| 20260505121405 | 63 | 208 | 3.0 | 8.0 | 0.00 | 0.00 | 0.00 | 66 | 1011.4 |
| 20260505120858 | 62 | 193 | 4.0 | 10.0 | 0.00 | 0.00 | 0.00 | 67 | 1011.4 |
| 20260505120359 | 62 | 190 | 4.0 | 10.0 | 0.00 | 0.00 | 0.00 | 68 | 1011.3 |
| 20260505115843 | 61 | 188 | 4.0 | 8.0 | 0.00 | 0.00 | 0.00 | 68 | 1011.3 |
| 20260505115339 | 61 | 194 | 4.0 | 10.0 | 0.00 | 0.00 | 0.00 | 69 | 1011.3 |
| 20260505114831 | 61 | 205 | 3.0 | 10.0 | 0.00 | 0.00 | 0.00 | 69 | 1011.3 |
| 20260505114326 | 60 | 199 | 2.0 | 7.0 | 0.00 | 0.00 | 0.00 | 69 | 1011.2 |
| 20260505113819 | 61 | 139 | 2.0 | 6.0 | 0.00 | 0.00 | 0.00 | 69 | 1011.2 |
| 20260505113313 | 61 | 281 | 2.0 | 6.0 | 0.00 | 0.00 | 0.00 | 69 | 1011.1 |
| 20260505113034 | 61 | 223 | 2.0 | 6.0 | 0.00 | 0.00 | 0.00 | 69 | 1011.0 |
| 20260505112529 | 60 | 173 | 2.0 | 6.0 | 0.00 | 0.00 | 0.00 | 69 | 1011.0 |
| 20260505111755 | 60 | 187 | 3.0 | 7.0 | 0.00 | 0.00 | 0.00 | 70 | 1010.9 |
| 20260505111250 | 60 | 191 | 2.0 | 7.0 | 0.00 | 0.00 | 0.00 | 71 | 1010.9 |
| 20260505110742 | 60 | 155 | 2.0 | 5.0 | 0.00 | 0.00 | 0.00 | 71 | 1010.9 |
| 20260505110239 | 59 | 154 | 1.0 | 5.0 | 0.00 | 0.00 | 0.00 | 71 | 1010.7 |
| 20260505102148 | 58 | 216 | 1.0 | 6.0 | 0.00 | 0.00 | 0.00 | 74 | 1010.2 |
| 20260505101642 | 58 | 215 | 2.0 | 5.0 | 0.00 | 0.00 | 0.00 | 74 | 1010.2 |
| 20260505101136 | 58 | 205 | 2.0 | 7.0 | 0.00 | 0.00 | 0.00 | 74 | 1010.2 |
| 20260505100630 | 58 | 203 | 2.0 | 7.0 | 0.00 | 0.00 | 0.00 | 75 | 1010.2 |
| 20260505100355 | 58 | 191 | 2.0 | 9.0 | 0.00 | 0.00 | 0.00 | 75 | 1010.2 |
| 20260505095840 | 57 | 214 | 1.0 | 9.0 | 0.00 | 0.00 | 0.00 | 75 | 1010.2 |
| 20260505095112 | 57 | 223 | 1.0 | 4.0 | 0.00 | 0.00 | 0.00 | 75 | 1010.1 |
| 20260505094606 | 58 | 223 | 2.0 | 6.0 | 0.00 | 0.00 | 0.00 | 75 | 1010.2 |
| 20260505094100 | 58 | 223 | 1.0 | 6.0 | 0.00 | 0.00 | 0.00 | 76 | 1010.1 |
| 20260505093556 | 58 | 219 | 1.0 | 6.0 | 0.00 | 0.00 | 0.00 | 75 | 1010.1 |
| 20260505093048 | 58 | 271 | 1.0 | 4.0 | 0.00 | 0.00 | 0.00 | 75 | 1010.1 |
| 20260505092548 | 58 | 188 | 2.0 | 5.0 | 0.00 | 0.00 | 0.00 | 74 | 1010.0 |
| 20260505092046 | 58 | 187 | 1.0 | 5.0 | 0.00 | 0.00 | 0.00 | 75 | 1010.0 |
| 20260505091547 | 58 | 232 | 1.0 | 3.0 | 0.00 | 0.00 | 0.00 | 76 | 1010.0 |
| 20260505091047 | 58 | 242 | 1.0 | 4.0 | 0.00 | 0.00 | 0.00 | 76 | 1010.0 |
| 20260505090547 | 58 | 202 | 2.0 | 6.0 | 0.00 | 0.00 | 0.00 | 75 | 1010.0 |
| 20260505090058 | 59 | 53 | 2.0 | 6.0 | 0.00 | 0.00 | 0.00 | 74 | 1009.9 |
| 20260505085550 | 59 | 121 | 2.0 | 6.0 | 0.00 | 0.00 | 0.00 | 74 | 1010.0 |
| 20260505085524 | 59 | 212 | 3.0 | 6.0 | 0.00 | 0.00 | 0.00 | 74 | 1009.9 |
| 20260505084800 | 59 | 221 | 3.0 | 7.0 | 0.00 | 0.00 | 0.00 | 75 | 1009.9 |
| 20260505084042 | 59 | 231 | 2.0 | 7.0 | 0.00 | 0.00 | 0.00 | 75 | 1010.0 |
| 20260505083540 | 59 | 167 | 2.0 | 5.0 | 0.00 | 0.00 | 0.00 | 75 | 1009.9 |
| 20260505083040 | 59 | 150 | 2.0 | 9.0 | 0.00 | 0.00 | 0.00 | 75 | 1010.0 |
| 20260505082541 | 59 | 217 | 1.0 | 9.0 | 0.00 | 0.00 | 0.00 | 75 | 1009.9 |
| 20260505082042 | 59 | 183 | 1.0 | 4.0 | 0.00 | 0.00 | 0.00 | 75 | 1009.9 |
| 20260505081538 | 59 | 184 | 1.0 | 6.0 | 0.00 | 0.00 | 0.00 | 75 | 1009.9 |
| 20260505081038 | 59 | 147 | 1.0 | 6.0 | 0.00 | 0.00 | 0.00 | 75 | 1010.0 |
| 20260505080536 | 59 | 186 | 1.0 | 3.0 | 0.00 | 0.00 | 0.00 | 75 | 1010.0 |
| 20260505080034 | 59 | 188 | 2.0 | 4.0 | 0.00 | 0.00 | 0.00 | 76 | 1009.9 |
| 20260505075534 | 59 | 187 | 1.0 | 5.0 | 0.00 | 0.00 | 0.00 | 76 | 1009.9 |
| 20260505075029 | 59 | 183 | 1.0 | 5.0 | 0.00 | 0.00 | 0.00 | 77 | 1009.9 |
| 20260505074529 | 58 | 189 | 2.0 | 5.0 | 0.00 | 0.00 | 0.00 | 79 | 1009.8 |
| 20260505074030 | 58 | 149 | 1.0 | 5.0 | 0.00 | 0.00 | 0.00 | 81 | 1009.8 |
| 20260505073533 | 58 | 131 | 0.0 | 3.0 | 0.00 | 0.00 | 0.00 | 82 | 1009.8 |
| 20260505073032 | 58 | 131 | 1.0 | 3.0 | 0.00 | 0.00 | 0.00 | 82 | 1009.7 |
| 20260505072528 | 58 | 135 | 1.0 | 3.0 | 0.00 | 0.00 | 0.00 | 81 | 1009.7 |
| 20260505072029 | 58 | 140 | 1.0 | 3.0 | 0.00 | 0.00 | 0.00 | 81 | 1009.8 |
| 20260505071529 | 58 | 235 | 1.0 | 3.0 | 0.00 | 0.00 | 0.00 | 81 | 1009.8 |
| 20260505071254 | 58 | 229 | 1.0 | 5.0 | 0.00 | 0.00 | 0.00 | 81 | 1009.8 |
| 20260505070526 | 58 | 240 | 1.0 | 5.0 | 0.00 | 0.00 | 0.00 | 80 | 1010.0 |
| 20260505070028 | 58 | 135 | 1.0 | 3.0 | 0.00 | 0.00 | 0.00 | 80 | 1010.1 |
| 20260505065525 | 59 | 135 | 1.0 | 3.0 | 0.00 | 0.00 | 0.00 | 77 | 1009.9 |
| 20260505065026 | 59 | 135 | 1.0 | 4.0 | 0.00 | 0.00 | 0.00 | 76 | 1010.0 |
| 20260505064525 | 59 | 136 | 1.0 | 4.0 | 0.00 | 0.00 | 0.00 | 74 | 1010.0 |
| 20260505064024 | 60 | 140 | 1.0 | 4.0 | 0.00 | 0.00 | 0.00 | 72 | 1010.1 |
| 20260505063523 | 60 | 139 | 1.0 | 4.0 | 0.00 | 0.00 | 0.00 | 70 | 1010.1 |
| 20260505063028 | 60 | 138 | 1.0 | 4.0 | 0.00 | 0.00 | 0.00 | 70 | 1010.1 |
| 20260505062530 | 59 | 140 | 1.0 | 5.0 | 0.00 | 0.00 | 0.00 | 71 | 1010.1 |
| 20260505062028 | 59 | 227 | 1.0 | 5.0 | 0.00 | 0.00 | 0.00 | 71 | 1010.0 |
| 20260505061530 | 59 | 74 | 0.0 | 0.0 | 0.00 | 0.00 | 0.00 | 71 | 1010.0 |
| 20260505061024 | 59 | 74 | 0.0 | 0.0 | 0.00 | 0.00 | 0.00 | 71 | 1010.1 |
| 20260505060741 | 59 | 73 | 0.0 | 1.0 | 0.00 | 0.00 | 0.00 | 71 | 1010.1 |
| 20260505060023 | 58 | 73 | 0.0 | 1.0 | 0.00 | 0.00 | 0.00 | 71 | 1010.2 |
| 20260505055524 | 58 | 73 | 0.0 | 2.0 | 0.00 | 0.00 | 0.00 | 70 | 1010.2 |
| 20260505055022 | 58 | 73 | 0.0 | 3.0 | 0.00 | 0.00 | 0.00 | 70 | 1010.1 |
| 20260505054956 | 58 | 73 | 0.0 | 3.0 | 0.00 | 0.00 | 0.00 | 70 | 1010.1 |
| 20260505054020 | 58 | 130 | 0.0 | 1.0 | 0.00 | 0.00 | 0.00 | 69 | 1010.1 |
| 20260505053742 | 58 | 130 | 0.0 | 4.0 | 0.00 | 0.00 | 0.00 | 70 | 1010.1 |
| 20260505053032 | 58 | 130 | 0.0 | 4.0 | 0.00 | 0.00 | 0.00 | 70 | 1010.1 |
| 20260505052525 | 57 | 130 | 0.0 | 2.0 | 0.00 | 0.00 | 0.00 | 70 | 1010.1 |
| 20260505052255 | 57 | 130 | 0.0 | 2.0 | 0.00 | 0.00 | 0.00 | 69 | 1010.2 |
| 20260505051518 | 57 | 130 | 0.0 | 2.0 | 0.00 | 0.00 | 0.00 | 69 | 1010.2 |
| 20260505051021 | 57 | 130 | 0.0 | 2.0 | 0.00 | 0.00 | 0.00 | 68 | 1010.2 |
| 20260505050530 | 58 | 130 | 1.0 | 3.0 | 0.00 | 0.00 | 0.00 | 67 | 1010.2 |
| 20260505041514 | 60 | 132 | 2.0 | 9.0 | 0.00 | 0.00 | 0.00 | 61 | 1010.0 |
| 20260505041015 | 60 | 141 | 1.0 | 9.0 | 0.00 | 0.00 | 0.00 | 61 | 1009.9 |
| 20260505040511 | 60 | 132 | 2.0 | 5.0 | 0.00 | 0.00 | 0.00 | 60 | 1009.9 |
| 20260505040013 | 61 | 132 | 2.0 | 5.0 | 0.00 | 0.00 | 0.00 | 59 | 1009.9 |
| 20260505035508 | 61 | 149 | 2.0 | 6.0 | 0.00 | 0.00 | 0.00 | 59 | 1009.8 |
| 20260505035005 | 61 | 157 | 3.0 | 8.0 | 0.00 | 0.00 | 0.00 | 59 | 1009.8 |
| 20260505034459 | 61 | 145 | 3.0 | 8.0 | 0.00 | 0.00 | 0.00 | 58 | 1009.6 |
| 20260505033952 | 62 | 167 | 2.0 | 7.0 | 0.00 | 0.00 | 0.00 | 58 | 1009.6 |
| 20260505033447 | 62 | 140 | 2.0 | 4.0 | 0.00 | 0.00 | 0.00 | 58 | 1009.6 |
| 20260505032939 | 62 | 140 | 2.0 | 9.0 | 0.00 | 0.00 | 0.00 | 57 | 1009.7 |
| 20260505032438 | 62 | 140 | 4.0 | 9.0 | 0.00 | 0.00 | 0.00 | 56 | 1009.8 |
| 20260505031933 | 62 | 123 | 4.0 | 12.0 | 0.00 | 0.00 | 0.00 | 56 | 1009.8 |
| 20260505031433 | 63 | 154 | 4.0 | 8.0 | 0.00 | 0.00 | 0.00 | 55 | 1009.9 |
| 20260505031425 | 62 | 195 | 4.0 | 12.0 | 0.00 | 0.00 | 0.00 | 56 | 1009.9 |
| 20260505030416 | 63 | 147 | 4.0 | 8.0 | 0.00 | 0.00 | 0.00 | 55 | 1009.8 |
| 20260505025904 | 62 | 148 | 3.0 | 8.0 | 0.00 | 0.00 | 0.00 | 55 | 1009.9 |
| 20260505025619 | 63 | 197 | 3.0 | 10.0 | 0.00 | 0.00 | 0.00 | 55 | 1009.7 |
| 20260505024853 | 63 | 182 | 3.0 | 10.0 | 0.00 | 0.00 | 0.00 | 55 | 1009.7 |
| 20260505024351 | 63 | 118 | 3.0 | 11.0 | 0.00 | 0.00 | 0.00 | 55 | 1009.7 |
| 20260505023841 | 63 | 148 | 3.0 | 9.0 | 0.00 | 0.00 | 0.00 | 55 | 1009.8 |
| 20260505023334 | 63 | 165 | 3.0 | 8.0 | 0.00 | 0.00 | 0.00 | 54 | 1009.8 |
| 20260505022829 | 63 | 161 | 3.0 | 12.0 | 0.00 | 0.00 | 0.00 | 54 | 1009.8 |
| 20260505022807 | 63 | 138 | 4.0 | 12.0 | 0.00 | 0.00 | 0.00 | 54 | 1009.8 |
| 20260505021818 | 63 | 138 | 4.0 | 8.0 | 0.00 | 0.00 | 0.00 | 54 | 1009.8 |
| 20260505021311 | 63 | 160 | 4.0 | 8.0 | 0.00 | 0.00 | 0.00 | 54 | 1009.9 |
| 20260505021027 | 63 | 115 | 3.0 | 8.0 | 0.00 | 0.00 | 0.00 | 54 | 1010.0 |
| 20260505020302 | 63 | 173 | 2.0 | 6.0 | 0.00 | 0.00 | 0.00 | 54 | 1010.0 |
| 20260505020011 | 63 | 145 | 3.0 | 8.0 | 0.00 | 0.00 | 0.00 | 54 | 1010.0 |
| 20260505015248 | 63 | 148 | 3.0 | 13.0 | 0.00 | 0.00 | 0.00 | 54 | 1010.0 |
| 20260505014743 | 63 | 167 | 3.0 | 13.0 | 0.00 | 0.00 | 0.00 | 54 | 1009.9 |
| 20260505014235 | 63 | 153 | 2.0 | 7.0 | 0.00 | 0.00 | 0.00 | 54 | 1010.0 |
| 20260505013954 | 63 | 140 | 2.0 | 7.0 | 0.00 | 0.00 | 0.00 | 53 | 1010.0 |
| 20260505013223 | 63 | 150 | 2.0 | 5.0 | 0.00 | 0.00 | 0.00 | 52 | 1010.0 |
| 20260505012716 | 64 | 151 | 2.0 | 7.0 | 0.00 | 0.00 | 0.00 | 52 | 1009.9 |
| 20260505012434 | 64 | 133 | 3.0 | 9.0 | 0.00 | 0.00 | 0.00 | 51 | 1009.7 |
| 20260505011716 | 64 | 135 | 3.0 | 9.0 | 0.00 | 0.00 | 0.00 | 50 | 1009.7 |
| 20260505011419 | 65 | 189 | 3.0 | 10.0 | 0.00 | 0.00 | 0.00 | 49 | 1009.6 |
| 20260505010705 | 65 | 154 | 4.0 | 10.0 | 0.00 | 0.00 | 0.00 | 49 | 1009.6 |
| 20260505010148 | 65 | 145 | 3.0 | 9.0 | 0.00 | 0.00 | 0.00 | 48 | 1009.6 |
| 20260505005642 | 65 | 151 | 3.0 | 10.0 | 0.00 | 0.00 | 0.00 | 48 | 1009.5 |
| 20260505005136 | 65 | 168 | 4.0 | 10.0 | 0.00 | 0.00 | 0.00 | 47 | 1009.5 |
| 20260505004857 | 65 | 181 | 3.0 | 9.0 | 0.00 | 0.00 | 0.00 | 47 | 1009.5 |
| 20260505004341 | 65 | 151 | 3.0 | 9.0 | 0.00 | 0.00 | 0.00 | 47 | 1009.5 |
| 20260505003616 | 65 | 169 | 2.0 | 8.0 | 0.00 | 0.00 | 0.00 | 47 | 1009.4 |
| 20260505003110 | 65 | 173 | 2.0 | 7.0 | 0.00 | 0.00 | 0.00 | 47 | 1009.4 |
| 20260505002606 | 66 | 150 | 2.0 | 7.0 | 0.00 | 0.00 | 0.00 | 46 | 1009.3 |
| 20260505002057 | 66 | 146 | 2.0 | 7.0 | 0.00 | 0.00 | 0.00 | 46 | 1009.3 |
| 20260505001558 | 66 | 154 | 3.0 | 7.0 | 0.00 | 0.00 | 0.00 | 46 | 1009.2 |
| 20260505001315 | 66 | 160 | 3.0 | 6.0 | 0.00 | 0.00 | 0.00 | 45 | 1009.2 |
| 20260505000541 | 66 | 217 | 2.0 | 8.0 | 0.00 | 0.00 | 0.00 | 45 | 1009.2 |
| 20260504235532 | 67 | 191 | 3.0 | 7.0 | 0.00 | 0.00 | 0.00 | 46 | 1009.2 |
| 20260504235259 | 67 | 173 | 3.0 | 9.0 | 0.00 | 0.00 | 0.00 | 45 | 1009.2 |
| 20260504234517 | 68 | 163 | 3.0 | 9.0 | 0.00 | 0.00 | 0.00 | 44 | 1009.1 |
| 20260504234012 | 68 | 155 | 4.0 | 14.0 | 0.00 | 0.00 | 0.00 | 44 | 1009.1 |
| 20260504233504 | 68 | 161 | 5.0 | 14.0 | 0.00 | 0.00 | 0.00 | 43 | 1009.2 |
| 20260504233000 | 69 | 147 | 5.0 | 14.0 | 0.00 | 0.00 | 0.00 | 43 | 1009.1 |
| 20260504232454 | 69 | 170 | 5.0 | 13.0 | 0.00 | 0.00 | 0.00 | 43 | 1009.1 |
| 20260504231947 | 69 | 208 | 5.0 | 12.0 | 0.00 | 0.00 | 0.00 | 43 | 1009.2 |
| 20260504231440 | 69 | 138 | 4.0 | 12.0 | 0.00 | 0.00 | 0.00 | 42 | 1009.1 |
| 20260504230947 | 70 | 124 | 4.0 | 9.0 | 0.00 | 0.00 | 0.00 | 42 | 1009.1 |
| 20260504230442 | 70 | 166 | 5.0 | 11.0 | 0.00 | 0.00 | 0.00 | 41 | 1009.2 |
| 20260504225925 | 70 | 181 | 4.0 | 11.0 | 0.00 | 0.00 | 0.00 | 41 | 1009.2 |
| 20260504225415 | 70 | 162 | 4.0 | 9.0 | 0.00 | 0.00 | 0.00 | 41 | 1009.2 |
| 20260504224909 | 71 | 157 | 4.0 | 12.0 | 0.00 | 0.00 | 0.00 | 42 | 1009.2 |
| 20260504224415 | 71 | 207 | 5.0 | 14.0 | 0.00 | 0.00 | 0.00 | 41 | 1009.2 |
| 20260504223859 | 71 | 119 | 5.0 | 15.0 | 0.00 | 0.00 | 0.00 | 40 | 1009.2 |
| 20260504223351 | 71 | 160 | 5.0 | 15.0 | 0.00 | 0.00 | 0.00 | 39 | 1009.2 |
| 20260504222849 | 72 | 142 | 5.0 | 14.0 | 0.00 | 0.00 | 0.00 | 39 | 1009.2 |
| 20260504222343 | 72 | 171 | 4.0 | 14.0 | 0.00 | 0.00 | 0.00 | 40 | 1009.1 |
| 20260504221833 | 72 | 153 | 4.0 | 11.0 | 0.00 | 0.00 | 0.00 | 39 | 1009.2 |
| 20260504221333 | 72 | 145 | 4.0 | 11.0 | 0.00 | 0.00 | 0.00 | 40 | 1009.2 |
| 20260504220822 | 72 | 198 | 5.0 | 12.0 | 0.00 | 0.00 | 0.00 | 39 | 1009.3 |
| 20260504220324 | 73 | 162 | 6.0 | 15.0 | 0.00 | 0.00 | 0.00 | 38 | 1009.3 |
| 20260504215811 | 73 | 142 | 5.0 | 15.0 | 0.00 | 0.00 | 0.00 | 39 | 1009.2 |
| 20260504215304 | 73 | 200 | 4.0 | 12.0 | 0.00 | 0.00 | 0.00 | 37 | 1009.2 |
| 20260504214758 | 73 | 148 | 5.0 | 12.0 | 0.00 | 0.00 | 0.00 | 39 | 1009.2 |
| 20260504214251 | 72 | 228 | 4.0 | 12.0 | 0.00 | 0.00 | 0.00 | 37 | 1009.3 |